Location: Calvatone
(45.1167°N, 10.4333°E)
Time: 08:09:02
(UTC+00:00)

AO-85 - Visible Passes

Search period start: 02 December 2023 00:00
Search period end: 12 December 2023 00:00
Orbit: 516 x 753 km, 64.8° (Epoch: 04 January)

Date Brightness Start Highest point End Pass type
(mag) Time Alt. Az. Time Alt. Az. Time Alt. Az.
07 Dec ? 17:39:19 10° N 17:39:38 11° N 17:39:38 11° N visible
08 Dec ? 17:58:24 10° NNW 17:59:07 13° N 17:59:07 13° N visible
09 Dec ? 16:40:40 10° NNE 16:40:47 10° NNE 16:40:53 10° NNE visible
09 Dec ? 18:17:46 10° NNW 18:18:40 15° NNW 18:18:40 15° NNW visible
10 Dec ? 16:58:25 10° N 17:01:01 15° NNE 17:01:01 15° NNE visible
10 Dec ? 18:37:19 10° NNW 18:38:20 17° NNW 18:38:20 17° NNW visible
11 Dec ? 17:17:33 10° NNW 17:20:49 24° NNE 17:20:49 24° NNE visible
11 Dec ? 18:57:07 10° NW 18:58:08 17° NW 18:58:08 17° NW visible
